TimeCST,TemperatureF,Dew PointF,Humidity,Sea Level PressureIn,VisibilityMPH,Wind Direction,Wind SpeedMPH,Gust SpeedMPH,PrecipitationIn,Events,Conditions,WindDirDegrees,DateUTC
12:53 AM,34.0,32.0,92,30.35,9.0,Calm,Calm,-,N/A,,Clear,0,2012-11-29 06:53:00
1:53 AM,35.1,32.0,89,30.35,10.0,Calm,Calm,-,N/A,,Clear,0,2012-11-29 07:53:00
2:53 AM,35.1,30.9,85,30.34,10.0,Calm,Calm,-,N/A,,Clear,0,2012-11-29 08:53:00
3:53 AM,37.0,33.1,86,30.32,10.0,ENE,3.5,-,N/A,,Clear,60,2012-11-29 09:53:00
4:53 AM,37.9,32.0,79,30.32,10.0,NE,4.6,-,N/A,,Clear,50,2012-11-29 10:53:00
5:53 AM,34.0,30.9,89,30.34,10.0,Calm,Calm,-,N/A,,Clear,0,2012-11-29 11:53:00
6:53 AM,36.0,30.9,82,30.35,10.0,ENE,3.5,-,N/A,,Clear,70,2012-11-29 12:53:00
7:53 AM,39.9,33.1,77,30.36,10.0,East,4.6,-,N/A,,Clear,90,2012-11-29 13:53:00
8:53 AM,46.9,34.0,61,30.37,10.0,Variable,4.6,-,N/A,,Clear,0,2012-11-29 14:53:00
9:53 AM,53.1,36.0,52,30.37,10.0,Variable,3.5,-,N/A,,Clear,0,2012-11-29 15:53:00
10:53 AM,57.9,37.0,46,30.35,10.0,Variable,4.6,-,N/A,,Clear,0,2012-11-29 16:53:00
11:53 AM,60.1,35.1,39,30.33,10.0,SSE,6.9,-,N/A,,Clear,160,2012-11-29 17:53:00
12:53 PM,61.0,34.0,36,30.30,10.0,South,3.5,-,N/A,,Clear,190,2012-11-29 18:53:00
1:53 PM,62.1,34.0,35,30.27,10.0,ESE,3.5,-,N/A,,Clear,110,2012-11-29 19:53:00
2:53 PM,64.0,35.1,34,30.25,10.0,SSE,6.9,-,N/A,,Clear,160,2012-11-29 20:53:00
3:53 PM,62.1,36.0,38,30.24,10.0,Calm,Calm,-,N/A,,Clear,0,2012-11-29 21:53:00
4:53 PM,55.9,43.0,62,30.25,10.0,Calm,Calm,-,N/A,,Clear,0,2012-11-29 22:53:00
5:53 PM,50.0,42.1,74,30.25,10.0,Calm,Calm,-,N/A,,Clear,0,2012-11-29 23:53:00
6:53 PM,46.9,41.0,80,30.26,10.0,Calm,Calm,-,N/A,,Clear,0,2012-11-30 00:53:00
7:53 PM,46.9,42.1,83,30.28,10.0,Calm,Calm,-,N/A,,Clear,0,2012-11-30 01:53:00
8:53 PM,45.0,41.0,86,30.29,9.0,Calm,Calm,-,N/A,,Clear,0,2012-11-30 02:53:00
9:53 PM,44.1,42.1,93,30.29,5.0,Calm,Calm,-,N/A,,Clear,0,2012-11-30 03:53:00
10:53 PM,43.0,42.1,97,30.28,7.0,Calm,Calm,-,N/A,,Clear,0,2012-11-30 04:53:00
11:53 PM,43.0,42.1,97,30.28,7.0,Calm,Calm,-,N/A,,Clear,0,2012-11-30 05:53:00